Track YAOGAN-30 E now! 10-day predictions YAOGAN-30 E is classified as:
1 43029U 17075B 25199.88878153 .00002322 00000-0 18438-3 0 9998 2 43029 34.9931 138.1047 0004586 213.9096 146.1318 15.00176946417292